Theta_e
323 322 323 325 326 327 327 328 329 329 328 329 328 329 328 326 324 318 312 321 323 328 325 317 315 313 312 308 310 311 298 294 296 299 301 301 301 302 305 307 310 314 317 320 325
322 322 322 324 325 326 327 327 328 328 328 329 327 328 327 325 318 313 323 332 331 328 317 314 309 310 306 307 306 310 297 298 302 304 301 302 301 303 304 305 307 313 320 325 324
322 322 322 322 324 325 325 326 326 327 328 328 326 327 326 323 313 312 328 333 331 325 319 316 313 310 306 303 305 303 302 305 306 308 307 302 300 303 303 301 308 312 318 323 322
321 321 321 321 322 324 325 325 325 326 326 327 326 326 324 320 295 314 330 333 329 321 318 315 310 307 302 302 305 299 301 305 309 311 306 301 303 301 303 304 309 319 323 323 321
320 320 320 320 321 323 324 324 324 325 325 326 326 325 320 311 308 322 330 329 321 316 314 312 310 305 303 302 304 302 303 304 306 305 309 303 301 301 301 304 308 323 324 323 323
319 319 319 319 321 322 323 323 323 324 324 326 326 324 315 302 316 326 321 320 317 315 310 312 311 310 304 303 303 305 304 304 306 306 305 301 301 301 303 303 314 321 320 323 323
318 318 318 319 320 321 321 322 322 322 323 325 325 320 311 306 317 323 320 316 318 315 311 313 314 311 309 302 306 305 303 305 308 308 303 301 297 296 302 301 310 319 319 320 323
318 317 318 318 319 320 321 321 321 322 323 324 324 316 305 318 320 320 319 316 316 315 313 313 314 309 306 306 304 299 301 299 308 309 306 301 294 301 303 299 301 315 318 319 320
316 316 318 317 318 318 320 320 319 320 322 322 313 308 301 318 314 319 318 314 314 314 314 315 311 304 303 300 297 297 292 295 301 308 305 297 294 301 307 299 299 301 311 317 318
316 316 317 317 317 317 319 320 318 317 315 313 310 300 304 306 310 316 316 316 312 311 309 309 303 299 298 297 293 292 293 296 298 302 303 297 294 298 302 302 301 300 302 311 316
316 316 317 317 316 318 316 310 303 301 304 298 300 298 302 310 313 311 316 312 311 308 300 303 297 292 296 298 301 297 296 297 299 304 301 301 298 297 299 296 296 297 298 304 312
315 315 316 316 316 317 311 301 300 301 295 300 302 301 308 308 303 309 314 305 304 298 299 296 292 296 298 298 298 297 295 294 298 303 300 300 298 302 302 299 300 298 298 300 306
315 314 315 316 316 312 305 300 306 303 291 294 298 299 302 304 299 303 309 304 300 297 296 294 294 299 297 295 294 295 294 295 295 295 299 296 296 299 301 299 300 301 299 301 304
314 314 315 314 308 307 302 305 306 299 278 288 292 296 300 301 294 306 309 302 299 293 296 296 299 296 294 294 296 291 296 297 296 294 288 297 289 297 301 301 297 299 298 299 302
312 314 314 313 303 302 305 307 303 291 264 287 292 302 300 294 296 301 305 302 294 293 293 290 295 294 293 294 298 293 298 297 297 291 289 291 285 288 297 295 298 298 299 301 300
313 313 313 307 305 306 307 306 298 273 263 285 293 293 293 293 293 300 301 303 299 293 292 290 293 297 297 296 298 299 294 292 291 289 282 288 289 288 293 295 299 299 299 301 300
313 312 309 306 299 307 305 299 279 265 279 284 286 291 290 289 291 293 293 292 289 285 285 288 291 291 294 293 295 298 292 284 281 280 282 288 286 291 295 294 297 299 299 301 301
312 311 307 304 308 307 301 285 266 271 276 289 288 290 285 288 289 291 289 287 292 288 286 284 281 289 295 295 293 294 293 285 279 277 279 283 283 290 298 302 301 298 298 299 299
312 306 302 305 308 306 292 278 271 275 284 287 288 284 285 287 287 287 286 286 289 291 285 285 285 290 294 296 297 292 289 294 285 276 277 279 284 289 291 291 294 296 293 295 297
304 299 299 307 308 300 287 277 278 284 288 288 279 284 278 284 286 285 285 288 289 293 294 288 284 288 291 295 294 292 294 286 287 279 278 280 280 286 287 293 294 292 294 293 295
299 293 301 307 305 293 281 279 283 289 289 283 281 280 280 283 286 285 285 288 290 291 294 293 289 285 290 288 288 289 288 289 288 285 283 276 282 286 292 293 294 297 296 295 294
296 286 303 305 289 288 283 284 289 287 288 286 285 283 283 285 285 285 286 287 293 291 288 292 290 281 285 290 294 294 291 290 285 280 281 280 284 287 286 287 288 291 291 291 293
291 293 303 300 283 284 285 283 284 283 285 284 283 285 286 283 280 286 288 291 292 292 290 292 285 280 281 285 289 287 290 292 292 286 283 281 286 286 286 285 288 289 290 290 293
293 286 293 294 289 286 283 281 280 285 285 286 285 286 283 282 284 281 283 289 293 293 295 289 286 285 279 282 285 285 288 290 291 285 285 286 290 286 286 284 288 289 290 290 292
288 286 289 282 284 285 285 284 280 280 283 285 283 283 283 279 281 281 284 285 289 291 291 287 280 285 286 288 287 287 288 289 288 290 287 290 288 293 290 287 290 290 290 291 293
285 287 288 285 286 284 284 283 282 281 281 279 281 284 284 280 281 278 282 282 282 288 286 287 275 283 281 287 287 284 288 289 290 291 292 292 290 293 294 288 288 289 290 291 293
288 290 290 286 283 283 280 282 282 283 283 284 283 283 282 284 286 286 287 287 286 285 283 283 280 279 275 282 282 282 286 288 289 292 292 288 294 295 293 292 291 290 289 290 294
Wind_Speed
23 21 19 17 16 16 14 11 13 13 11 11 9 9 9 11 8 1 5 7 5 3 1 1 6 2 5 3 3 1 3 3 4 5 3 1 4 0 2 6 3 2 7 7 16
23 22 20 18 16 18 17 13 12 14 12 13 12 12 10 11 2 3 6 7 11 8 4 3 2 3 5 2 2 1 3 8 4 2 2 4 3 5 5 5 2 2 3 16 17
25 23 22 20 17 17 18 16 11 14 14 15 15 13 11 6 3 7 10 9 11 9 4 3 5 3 4 2 3 2 5 2 4 0 3 3 4 4 8 4 8 9 11 18 15
26 25 23 22 19 18 17 18 14 12 15 16 15 14 11 1 7 0 11 10 8 9 7 6 3 5 3 8 0 4 4 5 6 2 5 6 2 3 7 8 7 13 21 19 17
27 25 24 23 21 20 19 18 15 13 16 16 16 16 6 3 4 1 13 8 4 4 8 5 4 5 5 5 6 6 1 8 9 10 8 8 9 6 8 6 6 12 16 21 19
29 26 25 23 21 21 20 20 17 13 17 20 18 16 4 8 2 8 9 8 5 3 3 5 4 2 5 3 4 6 4 10 9 11 10 6 7 7 8 5 8 14 16 17 20
31 27 26 24 23 22 20 20 19 13 12 22 21 5 3 6 4 7 7 4 3 2 5 0 4 2 4 5 2 6 3 2 11 9 6 2 6 9 7 4 10 14 14 14 19
32 29 27 25 24 22 20 20 18 17 12 19 20 3 4 1 6 9 7 5 7 5 5 4 7 5 3 1 2 5 2 6 6 12 9 7 12 6 8 6 10 13 13 14 15
34 31 28 27 25 23 21 21 20 20 17 17 5 4 4 3 6 6 7 7 6 3 5 3 5 4 1 6 3 3 5 5 7 9 8 9 6 10 10 9 11 11 13 14 14
35 33 31 29 26 24 23 22 19 15 9 8 2 3 3 8 5 8 2 12 5 7 4 2 3 3 3 5 11 6 4 5 8 6 13 13 12 11 9 11 17 15 14 15 15
35 35 33 31 28 27 24 16 11 5 6 6 10 3 9 7 5 6 7 7 4 5 7 5 4 12 14 7 3 4 1 5 7 8 5 16 18 17 17 8 9 9 13 16 17
37 37 35 33 31 32 19 13 17 9 11 3 3 5 4 4 8 9 13 8 7 8 7 3 14 7 8 6 5 6 7 7 6 9 2 10 17 20 19 17 16 16 14 16 19
37 37 37 35 34 23 18 8 11 14 7 2 1 4 5 4 6 15 14 5 5 11 12 11 4 15 9 7 8 8 10 7 6 5 1 6 18 20 19 16 19 19 11 16 21
38 39 39 38 26 20 15 12 18 6 7 7 8 7 3 5 0 4 11 5 4 9 7 10 14 10 10 15 12 14 10 5 3 3 5 8 13 19 19 25 22 21 16 18 19
29 40 41 38 19 22 25 10 9 7 6 10 8 6 10 11 10 7 2 3 8 7 8 7 8 13 12 18 13 9 8 10 9 5 3 5 9 7 12 16 22 21 24 23 16
40 43 42 17 13 20 14 13 6 10 8 8 8 13 16 5 2 7 6 3 2 3 2 5 3 8 10 8 16 9 6 6 4 4 6 13 12 10 14 13 17 19 22 24 20
42 44 33 15 19 21 16 13 6 7 4 11 11 17 20 14 7 11 16 11 9 9 14 4 4 5 3 5 1 14 9 4 4 5 11 10 11 30 8 6 11 19 22 22 19
44 42 23 9 22 21 13 10 7 5 7 6 9 19 10 16 12 12 16 16 19 6 4 14 11 13 10 17 12 20 18 7 9 7 3 3 13 11 15 21 19 14 10 13 15
41 18 16 17 23 15 18 11 11 9 9 16 17 18 7 9 9 12 10 18 16 20 14 9 11 2 5 5 10 9 14 7 3 2 2 7 10 11 8 10 10 15 8 12 15
18 15 15 26 24 15 14 7 6 7 11 13 8 6 8 18 9 19 14 10 16 24 20 4 5 5 7 4 2 5 10 5 4 8 9 7 7 14 4 15 16 12 17 11 11
13 13 18 24 17 14 16 6 5 7 11 7 6 7 7 11 13 12 9 7 19 13 21 10 7 3 5 13 14 8 7 5 3 4 9 3 10 8 16 16 17 20 18 14 11
8 7 21 21 17 11 15 9 6 7 4 5 7 7 8 11 17 16 15 8 5 12 17 16 3 6 12 4 7 14 11 12 7 7 6 1 14 7 8 4 9 13 6 6 7
13 11 17 21 15 16 9 5 5 6 5 4 5 4 4 8 8 12 7 2 3 8 11 10 11 11 2 2 3 9 10 16 13 1 11 8 18 4 3 3 7 10 7 8 7
10 14 13 9 2 17 21 7 7 4 5 6 7 6 6 3 2 6 6 5 1 3 9 5 2 10 19 8 7 10 14 17 20 9 7 20 27 5 5 2 8 5 5 6 6
4 6 4 13 10 17 15 15 12 7 4 6 5 6 8 5 4 5 6 4 4 2 4 6 8 9 21 26 12 16 23 23 27 28 16 26 23 18 10 5 8 5 6 3 7
8 10 3 10 20 19 10 16 20 7 7 3 9 9 7 8 8 8 6 5 5 6 6 5 5 4 16 23 17 12 21 26 29 30 26 23 26 15 13 6 2 6 8 7 8
1 4 7 16 14 16 8 15 15 11 4 10 11 10 9 10 7 7 6 8 9 6 4 5 4 5 13 11 21 22 25 27 27 28 33 22 39 6 10 8 8 9 9 12 13
Wind_Direction
206 206 211 206 200 192 190 191 187 180 179 169 171 153 151 131 125 141 183 196 168 137 38 281 27 48 55 65 14 272 100 218 228 162 259 218 191 200 124 111 54 61 155 185 154
204 199 201 205 200 194 186 185 188 182 173 162 161 142 141 145 114 228 264 181 162 155 130 162 112 51 61 56 39 104 164 207 226 154 340 271 219 171 124 137 50 31 8 142 149
200 199 193 195 201 196 185 177 178 184 171 163 164 148 148 166 132 227 203 176 160 142 92 83 90 72 103 356 105 59 217 247 243 203 354 299 289 197 127 249 189 181 152 152 162
198 196 192 190 196 195 186 180 178 185 175 165 160 149 150 175 183 203 182 161 153 133 111 115 103 105 139 152 357 120 279 277 282 291 357 308 275 228 185 218 183 167 163 159 170
197 193 192 187 190 191 185 179 169 182 174 160 157 143 139 186 245 176 132 131 128 108 132 144 154 137 188 156 120 144 258 313 342 314 268 261 250 232 233 241 113 142 166 172 178
191 191 186 185 185 181 183 178 164 164 179 160 158 151 152 180 108 140 130 127 143 85 114 118 166 225 110 201 169 174 154 282 311 304 299 216 250 143 260 152 136 157 182 183 183
188 185 182 181 180 175 178 181 174 155 167 167 160 156 122 175 160 133 110 99 87 113 132 150 136 82 123 128 146 107 124 279 264 262 298 300 267 219 236 151 165 185 192 196 202
187 179 179 177 177 169 168 176 168 150 149 170 157 115 144 97 132 131 114 80 51 54 92 39 82 87 29 132 52 95 90 239 236 217 242 200 265 254 234 162 209 203 200 202 204
181 176 174 175 172 167 164 167 164 150 142 140 122 151 175 69 163 148 126 121 89 46 59 76 54 118 98 159 121 256 172 198 266 199 228 198 253 246 231 197 229 209 211 208 212
183 173 169 169 168 163 158 157 151 132 112 92 65 117 211 184 151 128 107 119 121 114 81 120 84 129 153 222 219 172 174 189 220 211 209 241 248 264 257 217 223 219 212 211 211
183 172 167 164 164 159 145 122 130 151 204 186 174 111 145 138 103 140 137 112 131 174 169 176 182 217 212 206 292 66 162 222 192 250 194 245 248 248 252 238 243 233 221 214 213
181 172 164 162 158 154 149 166 161 142 134 79 160 88 121 161 143 149 144 156 170 195 122 157 220 191 156 196 217 269 245 244 287 285 175 258 261 260 247 243 240 240 225 219 217
175 171 162 160 154 155 168 160 136 109 123 167 259 127 167 157 156 169 167 141 174 187 188 199 251 171 174 174 192 223 228 229 228 15 1 325 265 258 257 246 245 247 228 227 217
172 171 162 153 153 160 171 161 162 103 96 178 188 219 139 118 257 138 188 131 209 210 159 242 227 159 198 219 197 225 179 195 258 184 234 156 287 241 243 241 236 238 228 228 223
207 171 164 161 143 173 162 138 142 58 104 174 170 160 154 163 141 181 150 97 182 182 159 209 162 206 210 215 200 240 156 194 188 141 47 211 263 278 200 235 238 232 227 231 218
188 169 162 153 147 156 142 142 79 59 237 171 140 165 159 156 110 131 157 72 84 229 296 217 347 211 219 197 202 155 107 71 55 108 236 210 214 222 234 229 237 230 232 226 217
165 166 161 154 158 146 135 145 95 135 280 156 171 165 171 177 132 169 180 177 181 196 224 64 222 294 188 148 246 192 152 196 212 189 236 181 194 254 243 235 243 230 223 223 217
162 164 153 156 154 140 147 131 115 190 198 158 144 150 166 147 198 173 187 201 213 222 141 207 229 181 197 215 202 195 193 201 201 195 223 158 226 259 221 241 242 239 247 235 214
164 151 152 159 159 148 149 179 184 188 160 149 132 157 151 178 149 189 190 207 207 205 204 190 233 67 183 187 189 178 213 248 62 77 74 222 274 280 236 265 269 239 230 222 211
148 140 157 158 160 151 155 164 148 169 129 136 130 165 152 175 168 178 178 215 217 205 223 221 283 222 163 149 265 221 142 156 215 198 232 246 263 247 324 228 236 236 226 225 222
129 138 153 154 150 156 181 166 137 160 131 138 134 119 151 167 176 184 192 247 206 184 196 215 223 125 162 205 180 177 191 200 145 211 226 258 253 213 233 218 238 226 227 205 209
144 119 153 146 153 173 171 150 128 136 90 100 95 107 143 160 189 200 202 193 191 154 200 202 232 203 201 356 239 216 214 190 201 203 236 235 245 200 212 240 280 275 255 224 187
124 122 154 155 164 167 147 132 117 137 129 123 114 125 136 150 156 201 169 58 77 181 191 192 224 250 254 270 247 224 200 212 231 53 201 200 259 213 213 339 290 274 237 215 186
123 137 144 165 297 153 158 160 119 92 102 113 120 102 105 116 40 162 179 172 117 143 119 72 307 235 237 221 134 210 204 210 225 236 217 223 241 283 319 312 290 294 259 211 226
74 128 143 156 169 160 152 158 140 135 130 120 71 125 139 131 140 166 187 193 180 246 173 177 289 291 267 257 205 201 206 207 212 230 220 243 247 247 249 193 249 229 238 217 218
114 147 113 119 139 140 142 180 168 133 119 107 121 158 169 162 175 186 158 152 204 155 170 161 246 302 315 256 228 226 213 207 214 219 233 239 252 208 223 181 208 239 226 211 223
284 44 115 142 148 149 170 159 171 117 48 138 150 162 191 196 178 193 191 165 157 144 150 166 227 135 279 319 316 231 210 202 215 218 220 221 236 168 230 226 207 216 210 222 223